Погода в Чанчуне

Китай     43°54′35″N   125°17′52″E
темп.,
°C
ветер,
м/с
пор.,
м/с
влажн.,
%
обл.,
%
осадки,
мм/ч
давл.,
гПа
погр.,
м
14 мая, пт
пт1423:00+17ююз2363100 0.3 101058
02:00+16ю356848 0.3 1010105
05:00+15ю3772100 0.0 1011178
08:00+20ю6855100 0.0 1010830
11:00+23ююз7949100 0.0 10071735
14:00+25ююз71144100 0.0 10051954
17:00+26юз7134091 0.0 10022105
20:00+23юз9184447 0.0 10031241
15 мая, сб
сб1523:00+21юз10195211 0.0 10051165
02:00+18зюз81361100 0.0 1006942
05:00+13с5879100 0.3 1008521
08:00+14ссз4765100 1.0 1010954
11:00+15сз4546100 0.0 10111133
14:00+15з2528100 0.0 1011832
17:00+19з2421100 0.0 10101231
20:00+14ююз333476 0.0 101244
16 мая, вс
вс1623:00+12юз3540100 0.0 101273
02:00+12юз2239100 0.0 101237
05:00+12зюз2240100 0.0 101226
08:00+18зюз2126100 0.0 1011373
11:00+23сз2417100 0.0 10102353
14:00+25сз45135 0.0 10072880
17:00+24сз551325 0.0 10062785
20:00+19ююз1120100 0.0 100711
17 мая, пн
пн1723:00+17ю342383 0.0 100750
02:00+15юз3328100 0.0 100735
05:00+14юз3333100 0.0 100655
08:00+20юз3321100 0.0 1006422
11:00+25зсз1218100 0.0 10051367
14:00+27юз1215100 0.0 10032409
17:00+26ю2216100 0.0 10031795
20:00+21ю4828100 0.0 1003153
18 мая, вт
вт1823:00+19ююз41032100 0.0 1003245
02:00+18юз61431100 0.0 1003420
05:00+16ююз51232100 0.0 1003320
08:00+21ююз8112972 0.0 1003750
11:00+27юз8102134 0.0 10011414
14:00+29юз91118100 0.0 10002074
17:00+28юз792085 0.0 9991631
20:00+24юз7143124 0.0 1002645